Regional Weather Roundup
Issued by NWS Boston, MA

Home | Current Version | Previous Version | Text Only | Print | Product List | Glossary On
Versions: 1 2 3 4 5 6 7 8 9 10 11 12 13 14 15 16 17 18 19 20 21 22 23 24 25 26 27 28 29 30 31 32 33 34 35 36 37 38 39 40 41 42 43 44 45
000
ASUS41 KBOX 280110
RWRBOX

REGIONAL WEATHER ROUNDUP
NATIONAL WEATHER SERVICE TAUNTON MA
900 PM EDT WED AUG 27 2014

NOTE:  "FAIR" INDICATES FEW OR NO CLOUDS BELOW 12,000 FEET WITH NO
SIGNIFICANT WEATHER AND/OR OBSTRUCTIONS TO VISIBILITY.  THE FOLLOWING
OBSERVATION LOCATIONS DO NOT REPORT PRESENT WEATHER...PROVINCETOWN...
SMITHFIELD...BLOCK ISLAND...KEENE...AND OXFORD.

MAZALL-280200-
EASTERN MASSACHUSETTS

CITY           SKY/WX    TMP DP  RH WIND       PRES   REMARKS
BOSTON         LGT RAIN  79  68  69 W12       29.87R
BEVERLY        LGT RAIN  75  70  84 SW9       29.85R
LAWRENCE       CLOUDY    79  68  69 SW12      29.88R
BEDFORD        LGT RAIN  72  69  90 W8        29.87R
BLUE HILL        N/A     77  65  66 SW12      29.90R
NORWOOD        PTCLDY    79  66  64 SW6       29.88R
MARSHFIELD     PTCLDY    75  64  69 SW7       29.89S
PLYMOUTH       CLEAR     71  59  65 SW9       29.90S
TAUNTON        PTCLDY    73  62  68 SW5       29.90R
NEW BEDFORD    CLEAR     69  63  81 SW6       29.90R
$$

MAZALL-280200-
CAPE COD AND THE ISLANDS

CITY           SKY/WX    TMP DP  RH WIND       PRES   REMARKS
FALMOUTH       PTCLDY    70  61  73 SW7       29.91S
HYANNIS        CLEAR     73  62  68 SW12      29.90R
CHATHAM        CLEAR     70  65  84 VRB7      29.92R
PROVINCETOWN   PTCLDY    70  61  73 SW12      29.89R
NANTUCKET      PTCLDY    68  67  96 SW7       29.92S FOG
MARTHAS VNYRD  CLEAR     68  65  90 SW9       29.91S
$$

MAZALL-280200-
CENTRAL AND WESTERN MASSACHUSETTS

CITY           SKY/WX    TMP DP  RH WIND       PRES   REMARKS
WORCESTER      TSTM      70  68  93 NW13      29.94S FOG
FITCHBURG      CLOUDY    77  67  71 W5        29.90S
ORANGE         PTCLDY    74  71  91 S3        29.92R
SPRINGFIELD    MOCLDY    73  72  96 N2        29.90R
WESTFIELD      CLOUDY    75  73  93 S3        29.91R
NORTH ADAMS    CLEAR     72  64  76 W5        29.93R
PITTSFIELD     CLEAR     71  63  75 NW5       29.94S
$$

RIZALL-280200-
RHODE ISLAND

CITY           SKY/WX    TMP DP  RH WIND       PRES   REMARKS
PROVIDENCE     MOCLDY    74  64  71 SW6       29.92R
NEWPORT        CLEAR     72  64  76 S6        29.91R
BLOCK ISLAND   CLEAR     70  63  78 SW12      29.92S
SMITHFIELD     MOCLDY    73  61  64 SW5       29.91S
WESTERLY       CLEAR     72  64  76 SW5       29.91S
$$

CTZALL-280200-
CONNECTICUT

CITY           SKY/WX    TMP DP  RH WIND       PRES   REMARKS
BRADLEY INTL   CLOUDY    76  71  85 CALM      29.89R
HARTFORD       CLOUDY    77  70  79 CALM      29.89R
BRIDGEPORT     PTCLDY    79  66  64 S8        29.90R
DANBURY        LGT RAIN  72  69  90 CALM      29.93F FOG
GROTON         CLEAR     71  65  81 S5        29.90S
NEW HAVEN      PTCLDY    79  66  64 S8        29.90F
CHESTER        FAIR      73  66  78 SW6       29.92S
MERIDEN        LGT RAIN  75  66  73 NW6       29.91R
WILLIMANTIC    MOCLDY    77  65  66 CALM      29.91F
OXFORD         PTCLDY    70  64  83 N6        29.95S
$$

MEZ002-015-021-024-NHZ003-005-008-011-012-014-VTZ005-008-280200-
NORTHERN NEW ENGLAND

CITY           SKY/WX    TMP DP  RH WIND       PRES   REMARKS
PORTLAND ME    PTCLDY    77  68  73 CALM      29.84R
BANGOR ME      PTCLDY    74  61  63 N7        29.85R
CONCORD NH     PTCLDY    76  68  76 SW5       29.87R
MANCHESTER NH  MOCLDY    80  69  69 SW7       29.85R
NASHUA NH      CLOUDY    79  70  74 CALM      29.88R
PORTSMOUTH NH  MOCLDY    79  69  70 W3        29.84R
JAFFREY NH     PTCLDY    75  65  70 VRB3      29.93R
KEENE NH       PTCLDY    72  61  68 CALM      29.91R
BURLINGTON VT  CLOUDY    72  58  61 CALM      29.93R
MT. WASHINGTON FOG       50  50 100 W33G39      N/A  VSB 0
$$

NYZ052-076-280200-
EASTERN NEW YORK

CITY           SKY/WX    TMP DP  RH WIND       PRES   REMARKS
ALBANY         MOCLDY    73  59  61 W7        29.94R
NEW YORK CITY  PTCLDY    80  65  59 S12       29.88R
$$

ANZALL-280200-
MARINE OBSERVATIONS

STATION/POSITION TIME  TEMP    WIND        PRES    VSBY  WAVE
                       AIR SEA DIR/SP/G                  HT/PER
                 (UTC) (F)     (DEG/KT/KT) (MB)    (MI)  (FT/S)
BOSTON BUOY      0050   74 69  210/ 12/ 14 1011.5R         2/ 8
BUZZARDS BAY     0000          200/ 14/ 15 1013.2R
NANTUCKET SOUND  0050   71 71  220/ 12/ 16 1012.6R         1/ 3
MASS BAY-STELLWA 0004   74 69  230/ 10/ 14   N/A    1 7/8  2/ 8
ISLE OF SHOALS   0000   83     250/  9/  9 1009.7R
S OF BLOCK IS    0008      70                N/A           5/17
$$

......................KEY.........................
  SKY/WX - SKY CONDITION/PRESENT WEATHER
  TMP    - TEMPERATURE IN FAHRENHEIT
  DWPT   - DEWPOINT IN FAHRENHEIT
  RH     - RELATIVE HUMIDITY IN PERCENT
  WIND   - DIRECTION AND SPEED IN MPH
  PRES   - MEAN SEA LEVEL PRESSURE IN INCHES OF HG
  WCI    - WIND CHILL INDEX
  VSB    - VISIBILITY IN MILES
  HX     - HEAT INDEX
  TC     - TEMPERATURE IN CELSIUS
  VRB    - VARIABLE WIND DIRECTION
  N/A    - NOT AVAILABLE



USA.gov is the U.S. government's official web portal to all federal, state and local government web resources and services.